Flag for U.S.A. Weather past 2 weeks in Lexington, North Carolina, U.S.A.

Now
70 °F

Clear.


Feels Like: 70 °F
Forecast: 68 / 86 °F
Wind: No wind

Location: Davidson County Airport

Current Time: Aug 31, 2014 at 5:08:04 AM

Latest Report: Aug 31, 2014 at 4:35 AM


Visibility: 10 mi

Pressure: 30.16 "Hg

Humidity: 100%

Dew point: 70 °F

Location of LexingtonLocation

Historic Weather in Lexington — Graph

°F

Lexington temperature yesterday

Maximum temperature yesterday: 88 °F (at 3:15 PM)
Minimum temperature yesterday: 70 °F (at 7:15 AM)
Average temperature yesterday: 78 °F

Past Weeks' High & Low Weather Summary

 TemperatureHumidityPressure
High89 °F (Aug 28, 4:35 PM)100% (Aug 16, 3:15 AM)30.23 "Hg (Aug 16, 3:15 AM)
Low56 °F (Aug 27, 5:55 AM)39% (Aug 27, 2:50 PM)29.80 "Hg (Aug 18, 4:15 PM)
Average74 °F81%30.03 "Hg
* Reported Aug 16 3:15 AM — Aug 31 3:55 AM, Lexington, Weather by CustomWeather, © 2014

Note: Actual official high and low records may vary slightly from our data, if they occured in-between our weather recording intervals... More about our weather records

Advertising

Lexington weather history for previous 24 hours

 ConditionsComfort  
Time TempWeatherWind HumidityBarometerVisibility
3:55 AM
Aug 31
70 °FClear.No wind100%30.16 "Hg10 mi
3:35 AM71 °FClear.No wind96%30.16 "Hg10 mi
3:15 AM71 °FPassing clouds.No wind94%30.16 "Hg10 mi
2:55 AM72 °FPassing clouds.No wind90%30.16 "Hg10 mi
2:35 AM72 °FPassing clouds.No wind87%30.17 "Hg10 mi
2:15 AM72 °FPassing clouds.No wind86%30.17 "Hg10 mi
1:55 AM72 °FPassing clouds.No wind85%30.17 "Hg10 mi
1:15 AM73 °FPassing clouds.3 mph82%30.17 "Hg10 mi
12:55 AM74 °FClear.3 mph82%30.17 "Hg10 mi
12:35 AM74 °FClear.5 mph81%30.17 "Hg10 mi
12:15 AM75 °FClear.3 mph81%30.16 "Hg10 mi
11:55 PM
Aug 30
75 °FClear.3 mph81%30.16 "Hg10 mi
11:35 PM75 °FClear.5 mph81%30.16 "Hg10 mi
11:15 PM74 °FClear.3 mph86%30.16 "Hg10 mi
10:55 PM75 °FClear.No wind86%30.17 "Hg10 mi
10:35 PM75 °FPassing clouds.No wind84%30.16 "Hg10 mi
10:15 PM76 °FPassing clouds.No wind83%30.16 "Hg10 mi
9:55 PM76 °FPassing clouds.No wind83%30.15 "Hg10 mi
9:15 PM77 °FPassing clouds.3 mph79%30.14 "Hg10 mi
8:55 PM77 °FPassing clouds.No wind78%30.14 "Hg10 mi
8:15 PM76 °FScattered clouds.No wind80%30.13 "Hg10 mi
7:55 PM78 °FScattered clouds.No wind77%30.12 "Hg10 mi
7:35 PM80 °FSunny.No wind70%30.12 "Hg10 mi
7:15 PM82 °FSunny.No wind65%30.12 "Hg10 mi
6:55 PM84 °FSunny.3 mph59%30.11 "Hg10 mi
6:35 PM85 °FSunny.3 mph56%30.11 "Hg10 mi
6:15 PM86 °FSunny.3 mph52%30.12 "Hg10 mi
5:55 PM87 °FScattered clouds.3 mph53%30.12 "Hg10 mi
5:35 PM87 °FSunny.No wind52%30.12 "Hg10 mi
5:15 PM88 °FSunny.6 mph52%30.12 "Hg10 mi
4:55 PM88 °FScattered clouds.5 mph52%30.13 "Hg10 mi
4:35 PM88 °FScattered clouds.5 mph52%30.13 "Hg10 mi
4:15 PM88 °FSunny.7 mph54%30.14 "Hg10 mi
3:55 PM88 °FScattered clouds.5 mph53%30.14 "Hg10 mi
3:35 PM88 °FSunny.7 mph51%30.15 "Hg10 mi
3:15 PM88 °FScattered clouds.7 mph52%30.15 "Hg10 mi
2:55 PM88 °FSunny.No wind53%30.16 "Hg10 mi
2:15 PM86 °FScattered clouds.6 mph57%30.18 "Hg10 mi
1:15 PM84 °FScattered clouds.3 mph57%30.19 "Hg10 mi
12:55 PM86 °FScattered clouds.No wind57%30.20 "Hg10 mi
12:15 PM83 °FScattered clouds.5 mph63%30.21 "Hg10 mi
11:55 AM84 °FScattered clouds.3 mph64%30.21 "Hg10 mi
11:35 AM83 °FScattered clouds.No wind68%30.22 "Hg10 mi
11:15 AM82 °FScattered clouds.3 mph71%30.22 "Hg10 mi
10:55 AM81 °FScattered clouds.3 mph74%30.22 "Hg10 mi
10:35 AM79 °FScattered clouds.3 mph77%30.22 "Hg10 mi
10:15 AM78 °FScattered clouds.No wind81%30.22 "Hg10 mi
9:55 AM77 °FScattered clouds.No wind82%30.22 "Hg10 mi
9:35 AM76 °FScattered clouds.No wind91%30.23 "Hg7 mi
9:15 AM75 °FScattered clouds.No wind98%30.23 "Hg7 mi
8:55 AM74 °FFog.No wind100%30.22 "Hg5 mi
8:15 AM72 °FFog.No wind100%30.22 "Hg4 mi
7:55 AM71 °FFog.No wind100%30.21 "Hg2 mi
7:35 AM70 °FFog.No wind100%30.21 "Hg2 mi
7:15 AM70 °FFog.No wind100%30.21 "Hg2 mi
6:55 AM70 °FFog.No wind100%30.21 "Hg2 mi
6:35 AM70 °FFog.No wind100%30.21 "Hg2 mi
6:15 AM71 °FFog.No wind100%30.21 "Hg2 mi
5:55 AM71 °FFog.No wind100%30.20 "Hg3 mi
5:35 AM71 °FFog.No wind100%30.20 "Hg2 mi
5:15 AM71 °FFog.No wind100%30.19 "Hg3 mi
Weather by CustomWeather, © 2014

See weather overviewHow to use our weather pages